Preview of NWS' New Version of Forecast
This preview is not operational and should not be used for support decisions.

Regional Weather Roundup (RWR)

Issued by National Weather Service (NWS)

                            
000
ASUS43 KMKX 180420
RWRWI 

WISCONSIN REGIONAL WEATHER ROUNDUP
NATIONAL WEATHER SERVICE MILWAUKEE/SULLIVAN WI
1100 PM CDT WED APR 17 2019

NOTE: "FAIR" INDICATES FEW OR NO CLOUDS BELOW 12,000 FEET WITH NO
SIGNIFICANT WEATHER AND/OR OBSTRUCTIONS TO VISIBILITY.

WIZ001-002-006>008-014>016-023>028-180500-
NORTHWEST WISCONSIN
  
CITY           SKY/WX    TMP DP  RH WIND       PRES   REMARKS
SUPERIOR ARPT  CLOUDY    37  36  96 NE12G22   29.73S WCI  29          
ASHLAND        MIX PCPN  36  36 100 NE16G23   29.66F FOG     WCI  26  
HAYWARD        CLOUDY    38  36  92 N13G22    29.62S WCI  30          
SIREN          CLOUDY    39  38  99 N8        29.65S WCI  33          
CUMBERLAND     DRIZZLE   37  36  93 N8        29.60S WCI  31          
RICE LAKE      LGT RAIN  39  33  78 N12       29.60S WCI  32          
CHETEK         CLOUDY    39  39 100 N7        29.58S WCI  34          
LADYSMITH      CLOUDY    40  39  97 N9        29.57F WCI  34          
EAU CLAIRE     CLOUDY    43  41  93 N8        29.55R                  
MENOMONIE      CLOUDY   N/A N/A N/A NW6       29.60R                  
NEW RICHMOND   CLOUDY    40  38  96 N9        29.64R WCI  33          
OSCEOLA        CLOUDY    40  39  97 N9        29.67R WCI  34          
$$
 
WIZ003>005-009-010-017-018-180500-
NORTH CENTRAL WISCONSIN
  
CITY           SKY/WX    TMP DP  RH WIND       PRES   REMARKS
MANITOWISH WTR DRIZZLE   36  36 100 NE6       29.55F WCI  31          
ARBOR VITAE    LGT RAIN  39  37  93 N6        29.55F WCI  35          
WOODRUFF       LGT RAIN  39  37  93 N6        29.55F WCI  35          
RHINELANDER    LGT RAIN  40  37  89 N6        29.54R FOG              
EAGLE RIVER    RAIN      38  38 100 NE6       29.53F WCI  33          
LAND O LAKES   RAIN      38  38 100 NE5       29.56F WCI  35          
PHILLIPS       DRIZZLE   37  37 100 N9        29.54F WCI  30          
TOMAHAWK       NOT AVBL                                               
MEDFORD        DRIZZLE   38  38  97 N10       29.52F WCI  32          
MERRILL        DRIZZLE   39  39 100 N7        29.53S WCI  34          
$$
 
WIZ029-030-035-036-043>047-180500-
CENTRAL WISCONSIN
  
CITY           SKY/WX    TMP DP  RH WIND       PRES   REMARKS
WAUSAU         CLOUDY    41  40  96 NW7       29.48S                  
MOSINEE        LGT RAIN  43  43 100 NW5       29.51R                  
MARSHFIELD     CLOUDY    43  43 100 NW5       29.50R FOG              
STEVENS POINT  CLOUDY    41  41 100 E3        29.49F                  
WAUPACA        CLOUDY    45  44  97 CALM      29.49F                  
WAUTOMA        CLOUDY    44  43  96 CALM      29.50R FOG              
WISC RAPIDS    CLOUDY    44  39  82 CALM      29.50R                  
CAMP DOUGLAS   NOT AVBL                                               
$$
 
WIZ011>013-019>022-031-037>040-048>050-180500-
NORTHEAST WISCONSIN
  
CITY           SKY/WX    TMP DP  RH WIND       PRES   REMARKS
ANTIGO         DRIZZLE   38  38 100 N8        29.50S WCI  32          
SHAWANO        CLOUDY    46  43  91 E5        29.48F                  
OCONTO         CLOUDY    41  40  97 E8        29.48F                  
STURGEON BAY   LGT RAIN  43  42  97 E8        29.50F                  
GREEN BAY      CLOUDY    44  42  93 N14       29.49F                  
MANITOWOC      CLOUDY    47  46  97 SE5       29.47F FOG              
APPLETON       CLOUDY    45  45 100 N7        29.46F FOG              
CLINTONVILLE   CLOUDY    44  42  92 CALM      29.48S                  
OSHKOSH        CLOUDY    47  45  93 CALM      29.47S FOG              
$$
 
WIZ032>034-041-042-053>061-180500-
SOUTHWEST WISCONSIN
  
CITY           SKY/WX    TMP DP  RH WIND       PRES   REMARKS
LA CROSSE      CLOUDY    48  44  86 NW9       29.55R                  
SPARTA         CLOUDY    43  43 100 CALM      29.53R FOG              
VIROQUA        CLOUDY    53  53 100 W13G21    29.53S                  
BOSCOBEL       CLOUDY    58  53  84 SW15G31   29.54R                  
PRAIRIE DU CHI CLOUDY    53  47  80 W13G20    29.57S                  
PLATTEVILLE    CLOUDY    57  57  99 W20G25    29.56S                  
$$

WIZ056-057-062-063-064-067-068-180500-
SOUTH CENTRAL WISCONSIN
  
CITY           SKY/WX    TMP DP  RH WIND       PRES   REMARKS
REEDSBURG      CLOUDY    57  57 100 SW10      29.49S                  
BARABOO/DELLS  CLOUDY    56  55  94 SW13G18   29.49S                  
LONE ROCK      CLOUDY    60  54  80 W18G29    29.51S                  
MINERAL POINT  CLOUDY    57 N/A N/A W22G29    29.54R                  
MADISON        MOCLDY    58  56  93 SW6       29.50S                  
MIDDLETON      CLOUDY    61  58  88 W15       29.51S                  
WATERTOWN      CLOUDY    61  61 100 W9        29.49S                  
MONROE         CLOUDY    65  57  76 MISG      29.53S                  
JANESVILLE     MOCLDY    68  55  64 SW13      29.51F                  
$$
 
WIZ051-052-058>065-066-070>072-180500-
SOUTHEAST WISCONSIN
  
CITY           SKY/WX    TMP DP  RH WIND       PRES   REMARKS
MILWAUKEE      CLOUDY    68  54  60 SW16      29.51S                  
WAUKESHA       MOCLDY    63  54  72 SW12G18   29.52F                  
MILWAUKEE/TIMM FAIR      64  52  63 SW14G20   29.50F                  
RACINE         MOCLDY    67  54  63 S14       29.54F                  
KENOSHA        FAIR      67  56  67 SW14G22   29.53S                  
FOND DU LAC    MOCLDY    49  48  97 CALM      29.47F FOG              
SHEBOYGAN      CLOUDY    57  53  86 SW13      29.45F                  
WEST BEND      CLOUDY    54  52  94 S5        29.48S                  
JUNEAU         MOCLDY    57  56  94 SW10      29.50S                  
$$

LSZ147-162-180500-
LAKE SUPERIOR
  
STATION/POSITION TIME  TEMP    WIND        PRES    WAVE
                       AIR SEA DIR/SP/G            HT/PER
                 (UTC) (F)     (DEG/KT/KT) (MB)    (FT/S)
$$
 
LMZ867-665-643>646-180500-
LAKE MICHIGAN
  
STATION/POSITION TIME  TEMP    WIND        PRES    WAVE
                       AIR SEA DIR/SP/G            HT/PER
                 (UTC) (F)     (DEG/KT/KT) (MB)    (FT/S)
NORTHPORT PIER   0401   40      60/  9      999.7
KEWAUNEE LAKESHO 0354   46     230/  2/  8  997.9F
SHEBOYGAN LAKESH 0400   59     200/ 15/ 16  997.7F
MILWAUKEE LAKESH 0340   54                   N/A
KENOSHA   LAKESH 0400   69     210/ 12/ 15 1000.7
$$

TC  - TEMPERATURE IN CELSIUS
VSB - VISIBILITY IN STATUTE MILES
WCI - WIND CHILL INDEX
HX  - HEAT INDEX